Regional Weather Roundup
Issued by NWS

Home | Current Version | Previous Version | Graphics & Text | Print | Product List | Glossary On
Versions: 1 2 3 4 5 6 7 8 9 10 11 12 13 14 15 16 17 18 19 20 21 22 23 24 25 26 27 28 29 30 31 32 33 34 35 36 37 38 39 40 41 42 43 44 45 46 47 48 49 50
000
ASUS43 KMPX 192001
RWRMN
WEATHER ROUNDUP FOR MINNESOTA
NATIONAL WEATHER SERVICE TWIN CITIES/CHANHASSEN MN
300 PM CDT FRI SEP 19 2014


NOTE: "FAIR" INDICATES FEW OR NO CLOUDS BELOW 12,000 FEET WITH NO
SIGNIFICANT WEATHER AND/OR OBSTRUCTIONS TO VISIBILITY. N/A MEANS
CURRENT SKY AND/OR WEATHER CONDITIONS ARE NOT AVAILABLE.

MNZ060>063-068>070-192100-
   Twin Cities Metro

CITY           SKY/WX    TMP DP  RH WIND       PRES   REMARKS
TWIN CITIES    PTSUNNY   78  61  55 S14G22    29.69F
ST PAUL        CLOUDY    77  61  57 S14G30    29.69F
CRYSTAL        CLOUDY    74  62  66 W7        29.69S
BLAINE         CLOUDY    73  63  68 W7        29.70S
LAKEVILLE      MOSUNNY   79  63  57 S15G23    29.69F
EDEN PRAIRIE   CLOUDY    78  62  57 SW17G26   29.68F
SOUTH ST PAUL  MOSUNNY   78  60  53 S13G28    29.69F
LAKE ELMO      CLOUDY    75  63  64 SW16G28   29.71F
$$
MNZ001>005-007-008-013>017-022>024-027-028-192100-
   Northwest Minnesota

CITY           SKY/WX    TMP DP  RH WIND       PRES   REMARKS
BEMIDJI        CLOUDY    64  61  88 S10       29.59F
HALLOCK        MOSUNNY   75  64  69 SW13      29.51R
ROSEAU         PTSUNNY   70  64  83 SW12G17   29.51S
WARROAD        CLOUDY    70  64  83 SW12      29.51F
THIEF RVR FALL PTSUNNY   72  64  78 SW17      29.55S
CROOKSTON      MOSUNNY   73  64  73 SW17      29.55S
FOSSTON        PTSUNNY   68  63  83 S17G25    29.57F
DETROIT LAKES  CLOUDY    66  63  88 S9        29.62F
MOORHEAD       PTSUNNY   75  68  78 S10G18    29.58F
PARK RAPIDS    CLOUDY    65  61  87 S8        29.63F
MAHNOMEN       MOCLDY    67  64  89 S16       29.58F
$$
MNZ006-009>011-018-025>026-192100-
   North Central Minnesota

CITY           SKY/WX    TMP DP  RH WIND       PRES   REMARKS
BAUDETTE       CLOUDY    66  63  90 SW12      29.52F
FLAG ISLAND    CLOUDY    61  61 100 S7        29.48F
INTL FALLS     LGT RAIN  62  60  93 S8        29.56F
WASKISH        CLOUDY    64  63  94 CALM      29.54F FOG
BIG FORK       DRIZZLE   63  61  94 SW8       29.62F
LONGVILLE      CLOUDY    63  61  94 S10       29.64F
GRAND RAPIDS   CLOUDY    61  57  88 S10       29.64F
CRANE LAKE     CLOUDY    59  57  94 SW6       29.63R
ORR            DRIZZLE   59  55  88 S8        29.60F
COOK           RAIN      59  57  94 S8G18     29.65S
WALKER         CLOUDY    63  60  90 S7G17     29.61F
$$
MNZ012-019>021-037-192100-
   Northeast Minnesota

CITY           SKY/WX    TMP DP  RH WIND       PRES   REMARKS
DULUTH         LGT RAIN  62  56  80 SW14      29.69S
ELY            CLOUDY    57  55  94 SW10G20   29.64F FOG
HIBBING        CLOUDY    62  57  83 VRB3      29.66F
EVELETH        CLOUDY    59  55  88 SW10G16   29.67F
DULUTH HARBOR  CLOUDY    64  59  82 SW9       29.70S
TWO HARBORS    LGT RAIN  61  55  82 SW9       29.68S
SILVER BAY     CLOUDY    61  57  88 S7        29.67S
GRAND MARAIS     N/A     54  52  93 CALM      29.67F
G MARAIS ARPRT DRIZZLE   54  50  87 S8        29.68F
$$
MNZ029>031-032-039>041-046>048-054>057-064-192100-
   West Central Minnesota

CITY           SKY/WX    TMP DP  RH WIND       PRES   REMARKS
FERGUS FALLS   CLOUDY    70  61  73 S12       29.63F
WHEATON        CLOUDY    68  63  83 S6        29.61F
MORRIS         LGT RAIN  70  64  83 S6        29.63F
ALEXANDRIA     CLOUDY    64  63  96 SW9       29.69S FOG
ELBOW LAKE     CLOUDY    66  64  94 S13       29.64S
WADENA         CLOUDY    64  61  88 S9        29.63F
GLENWOOD       CLOUDY    64  63  94 S8        29.69S FOG
APPLETON       CLOUDY    73  64  73 SW3       29.65S
BENSON         CLOUDY    70  63  78 SW6       29.67R
ORTONVILLE     CLOUDY    73  64  73 CALM      29.64F
MADISON        PTSUNNY   81  66  61 SW7       29.64F
WILLMAR        FAIR      72  63  73 S3        29.69F
$$
MNZ033>034-036-042>043-049>051-058-059-192100-
   Central Minnesota

CITY           SKY/WX    TMP DP  RH WIND       PRES   REMARKS
ST CLOUD       CLOUDY    65  62  90 S12       29.70F FOG
SAUK CENTRE    CLOUDY    63  62  97 S7        29.67F FOG
PAYNESVILLE    CLOUDY    62  61  97 SE5       29.68F FOG
AITKIN         CLOUDY    63  57  82 S10       29.67R
PINE RIVER     CLOUDY    61  61 100 S6        29.70S FOG
BRAINERD       LGT RAIN  60  59  96 S12       29.68F FOG
STAPLES        DRIZZLE   63  61  94 S7        29.66F
LONG PRAIRIE   LGT RAIN  61  61 100 SE8       29.65F
LITTLE FALLS   CLOUDY    61  59  94 S7        29.69S FOG
LITCHFIELD     PTSUNNY   70  64  83 S5        29.69F
BUFFALO        CLOUDY    67  60  77 S3        29.70F
MAPLE LAKE     CLOUDY    67  62  84 S3        29.70F
$$
MNZ037-044-045-052-053-192100-
   East Central Minnesota

CITY           SKY/WX    TMP DP  RH WIND       PRES   REMARKS
PRINCETON      CLOUDY    68  63  83 S12       29.70F
MORA           CLOUDY    63  59  88 SW8       29.72F
CAMBRIDGE      PTSUNNY   70  57  64 CALM      29.70F
RUSH CITY      CLOUDY    66  60  80 CALM      29.72S
MOOSE LAKE     LGT RAIN  63  55  77 S8        29.68F
HINCKLEY       CLOUDY    64  59  82 S7        29.71F
CLOQUET        LGT RAIN  61  57  88 S9        29.68F
MCGREGOR       CLOUDY    61  59  94 S10       29.70R
$$
MNZ071>073-080-081-089-090-097-098-192100-
   Southwest Minnesota

CITY           SKY/WX    TMP DP  RH WIND       PRES   REMARKS
MONTEVIDEO     CLOUDY    77  66  69 SW7       29.66F
GRANITE FALLS  CLOUDY    77  65  65 S7        29.68F
CANBY          PTSUNNY   80  66  62 SW10      29.66F
MARSHALL       PTSUNNY   81  64  57 W14G21    29.66F
REDWOOD FALLS  PTSUNNY   77  64  64 SW7       29.67F
OLIVIA         CLOUDY    73  63  68 S6        29.67F
PIPESTONE      MOSUNNY   82  64  54 W14       29.70F
WINDOM         MOSUNNY   84  63  48 SW25G32   29.70R
WORTHINGTON    MOSUNNY   81  64  57 SW22G28   29.71F
JACKSON        SUNNY     82  63  51 SW21G32   29.71S
TRACY          PTSUNNY   81  66  61 SW13      29.68F
SLAYTON        MOSUNNY   79  64  61 SW18G28   29.71F
$$
MNZ065>067-074>077-082>085-091>093-192100-
   South Central Minnesota

CITY           SKY/WX    TMP DP  RH WIND       PRES   REMARKS
MANKATO        SUNNY     82  63  51 S22G30    29.68F
NEW ULM        MOSUNNY   81  64  57 SW14G24   29.68R
FAIRMONT       SUNNY     82  61  47 S21G35    29.69F
GLENCOE        CLOUDY    73  61  67 W5        29.70F
FARIBAULT      SUNNY     84  57  39 S13G36    29.69F
OWATONNA       SUNNY     81  61  50 S25G35    29.70F
WASECA         SUNNY     81  57  44 S21G30    29.72F
ALBERT LEA     SUNNY     81  63  54 S24G30    29.74F
$$
MNZ078>079-086>088-094>096-192100-
   Southeast Minnesota

CITY           SKY/WX    TMP DP  RH WIND       PRES   REMARKS
ROCHESTER      SUNNY     75  59  57 S31G41    29.77F
RED WING       MOSUNNY   81  57  44 S18G24    29.71F
STANTON        SUNNY     80  60  51 S17G26    29.68F
DODGE CENTER   SUNNY     75  63  64 S29G39    29.74F
WINONA         SUNNY     77  59  53 S9G22     29.79F
AUSTIN         SUNNY     75  63  64 S26G37    29.77F
PRESTON        SUNNY     73  63  70 S28G39    29.82F
$$
ABBREVIATIONS USED IN REMARKS
   TC - TEMPERATURES IN CELSIUS
  WCI - WIND CHILL INDEX
   HX - HEAT INDEX
  VSB - VISIBILITY
$$



USA.gov is the U.S. government's official web portal to all federal, state and local government web resources and services.